Zurück zum Katalog

DELTA 1 DEB

AktivSSO
NORAD 7021·DEBRIS·🇺🇸 United States

Gestartet Nov 6, 1973 von Vandenberg Space Force Base

Loading…

Nächste Überflüge (nächste 24 Stunden)

TLE

AktuellSource: Space-Track

Epoche: Sep 14, 2026, 14:20 UTC

1 07021U 73086M   26257.59733135  .00000340  00000-0  29414-2 0  9991
2 07021 101.6801 292.2298 0183547  58.5738  94.1022 12.33186549360309

Verfolge DELTA 1 DEB in Echtzeit mit AllMySat

Download on the App Store